TimePDT,TemperatureF,Dew PointF,Humidity,Sea Level PressureIn,VisibilityMPH,Wind Direction,Wind SpeedMPH,Gust SpeedMPH,PrecipitationIn,Events,Conditions,WindDirDegrees,DateUTC
12:54 AM,42.1,39.9,92,30.21,10.0,South,5.8,-,N/A,,Clear,180,2013-10-02 07:54:00
1:54 AM,39.9,37.9,93,30.19,10.0,SW,5.8,-,N/A,,Clear,230,2013-10-02 08:54:00
2:09 AM,39.2,37.4,93,30.19,2.5,SW,5.8,-,N/A,,Scattered Clouds,220,2013-10-02 09:09:00
2:12 AM,39.2,37.4,93,30.18,1.2,SW,4.6,-,N/A,,Scattered Clouds,230,2013-10-02 09:12:00
2:14 AM,39.2,37.4,93,30.18,0.8,SW,4.6,-,N/A,,Mist,230,2013-10-02 09:14:00
2:45 AM,39.2,37.4,93,30.18,1.0,SW,3.5,-,N/A,,Mist,230,2013-10-02 09:45:00
2:52 AM,39.2,37.4,93,30.18,0.8,WSW,3.5,-,N/A,,Mist,240,2013-10-02 09:52:00
2:54 AM,39.0,37.9,96,30.18,0.8,WSW,3.5,-,N/A,,Mist,240,2013-10-02 09:54:00
3:04 AM,39.2,37.4,93,30.17,0.2,WSW,3.5,-,N/A,Fog,Fog,240,2013-10-02 10:04:00
3:54 AM,39.0,37.9,96,30.16,0.2,SSW,4.6,-,N/A,Fog,Fog,200,2013-10-02 10:54:00
4:54 AM,39.9,39.0,97,30.16,0.2,Calm,Calm,-,N/A,Fog,Fog,0,2013-10-02 11:54:00
5:30 AM,39.2,37.4,93,30.15,0.5,SSW,4.6,-,N/A,Fog,Fog,210,2013-10-02 12:30:00
5:38 AM,39.2,37.4,93,30.15,0.2,South,4.6,-,N/A,Fog,Fog,190,2013-10-02 12:38:00
5:54 AM,37.4,37.4,100,30.15,0.8,South,3.5,-,N/A,Fog,Mostly Cloudy,190,2013-10-02 12:54:00
6:01 AM,37.4,37.4,100,30.15,0.5,SSW,3.5,-,N/A,Fog,Fog,210,2013-10-02 13:01:00
6:54 AM,39.2,37.4,93,30.16,0.8,SSW,3.5,-,N/A,Fog,Mostly Cloudy,200,2013-10-02 13:54:00
7:03 AM,39.2,37.4,93,30.15,1.5,SSW,3.5,-,N/A,Fog,Mostly Cloudy,210,2013-10-02 14:03:00
7:22 AM,37.4,37.4,100,30.15,5.0,SSW,3.5,-,N/A,Fog,Mostly Cloudy,210,2013-10-02 14:22:00
7:54 AM,39.2,37.4,93,30.16,10.0,WSW,6.9,-,N/A,Fog,Patches of Fog,240,2013-10-02 14:54:00
8:54 AM,42.1,41.0,96,30.16,10.0,South,5.8,-,N/A,,Mostly Cloudy,170,2013-10-02 15:54:00
9:54 AM,45.0,43.0,93,30.16,10.0,South,8.1,-,N/A,,Mostly Cloudy,180,2013-10-02 16:54:00
10:54 AM,48.0,44.1,86,30.15,10.0,South,8.1,-,N/A,,Mostly Cloudy,170,2013-10-02 17:54:00
11:54 AM,51.1,46.0,83,30.14,10.0,South,8.1,-,N/A,,Overcast,190,2013-10-02 18:54:00
12:54 PM,53.1,46.0,77,30.14,10.0,SSW,4.6,-,0.00,,Overcast,200,2013-10-02 19:54:00
1:54 PM,54.0,46.0,75,30.13,9.0,Calm,Calm,-,0.00,Rain,Light Rain,0,2013-10-02 20:54:00
2:54 PM,52.0,48.0,86,30.14,7.0,SW,3.5,-,0.06,Rain,Heavy Rain,230,2013-10-02 21:54:00
3:54 PM,53.1,48.0,83,30.12,10.0,SSE,5.8,-,0.10,,Mostly Cloudy,150,2013-10-02 22:54:00
4:54 PM,53.1,48.9,86,30.12,10.0,SSE,8.1,-,0.00,,Mostly Cloudy,150,2013-10-02 23:54:00
5:54 PM,52.0,48.9,89,30.13,8.0,North,8.1,-,0.01,Rain,Rain,10,2013-10-03 00:54:00
6:54 PM,50.0,46.0,86,30.15,10.0,Calm,Calm,-,0.16,,Mostly Cloudy,0,2013-10-03 01:54:00
7:54 PM,48.9,46.0,90,30.15,10.0,SW,6.9,-,N/A,,Mostly Cloudy,230,2013-10-03 02:54:00
8:54 PM,48.0,46.0,93,30.17,10.0,Calm,Calm,-,N/A,,Mostly Cloudy,0,2013-10-03 03:54:00
9:54 PM,48.0,46.0,93,30.18,10.0,SSE,3.5,-,N/A,,Mostly Cloudy,160,2013-10-03 04:54:00
10:54 PM,46.9,46.0,97,30.21,10.0,SSW,6.9,-,N/A,,Mostly Cloudy,210,2013-10-03 05:54:00
11:54 PM,45.0,44.1,97,30.22,10.0,SW,3.5,-,N/A,,Mostly Cloudy,220,2013-10-03 06:54:00